DW8913 Weather Reports


time (UTC)temp
C
wind
direction
speed
KPH
gust
KPH
rain 1hr
cm
rain 24hr
cm
rain mn
cm
humidity
%
barometer
mb
20260506061601 14 120 6.4 14.5 0.00 0.00 0.00 87 1011.7
20260506044521 15 73 6.4 19.3 0.00 0.00 0.00 83 1012.4
20260506043104 15 16 4.8 16.1 0.00 0.00 0.00 83 1012.4
20260506041526 15 68 4.8 17.7 0.00 0.00 0.00 83 1012.3
20260506040108 15 141 8.0 17.7 0.00 0.00 0.00 83 1012.3
20260506034541 15 143 6.4 19.3 0.00 0.00 0.00 82 1012.3
20260506033006 15 169 9.7 19.3 0.00 0.00 0.00 82 1012.5
20260506031551 15 151 8.0 17.7 0.00 0.00 0.00 82 1012.3
20260506030020 15 113 6.4 17.7 0.00 0.00 0.00 81 1012.4
20260506024600 15 74 8.0 20.9 0.00 0.00 0.00 81 1012.6
20260506023026 15 51 4.8 16.1 0.00 0.00 0.00 80 1012.5
20260506021609 15 64 8.0 17.7 0.00 0.00 0.00 80 1012.6
20260506020039 15 179 6.4 19.3 0.00 0.00 0.00 80 1012.6
20260506014507 15 87 8.0 19.3 0.00 0.00 0.00 80 1012.3
20260506013054 15 72 4.8 19.3 0.00 0.00 0.00 80 1012.3
20260506011508 15 51 8.0 19.3 0.00 0.00 0.00 80 1012.2
20260506010037 15 74 8.0 16.1 0.00 0.00 0.00 81 1012.0
20260506004506 15 56 6.4 17.7 0.00 0.00 0.00 81 1011.8
20260506003045 15 172 4.8 14.5 0.00 0.00 0.00 81 1011.8
20260506001514 15 11 6.4 17.7 0.00 0.00 0.00 81 1011.8
20260506000054 15 65 4.8 19.3 0.00 0.00 0.00 80 1011.7
20260505234522 15 98 6.4 19.3 0.00 0.00 0.00 79 1011.6
20260505233100 16 122 8.0 20.9 0.00 0.00 0.00 77 1011.5
20260505231534 16 68 8.0 17.7 0.00 0.00 0.00 76 1011.6
20260505230003 16 160 6.4 22.5 0.00 0.00 0.00 74 1011.3
20260505224546 17 76 6.4 17.7 0.00 0.00 0.00 73 1011.3
20260505223019 17 156 8.0 24.1 0.00 0.00 0.00 73 1011.2
20260505221600 17 91 8.0 19.3 0.00 0.00 0.00 72 1011.4
20260505220030 17 195 6.4 19.3 0.00 0.00 0.00 72 1011.2
20260505214502 17 79 8.0 19.3 0.00 0.00 0.00 72 1010.9
20260505213043 17 117 6.4 16.1 0.00 0.00 0.00 71 1011.1
20260505211512 17 68 8.0 17.7 0.00 0.00 0.00 70 1010.9
20260505210055 18 37 8.0 19.3 0.00 0.00 0.00 69 1010.8
20260505204523 18 75 8.0 24.1 0.00 0.00 0.00 69 1010.7
20260505203108 18 81 8.0 22.5 0.00 0.00 0.00 69 1010.7
20260505201543 18 75 9.7 19.3 0.00 0.00 0.00 68 1010.9
20260505200016 18 106 8.0 22.5 0.00 0.00 0.00 68 1011.4
20260505194558 19 91 4.8 19.3 0.00 0.00 0.00 66 1011.3
20260505193027 19 83 6.4 20.9 0.00 0.00 0.00 66 1011.6
20260505191612 19 136 8.0 16.1 0.00 0.00 0.00 65 1012.0
20260505190046 20 112 6.4 17.7 0.00 0.00 0.00 65 1011.8
20260505184513 20 102 4.8 12.9 0.00 0.00 0.00 65 1011.8
20260505183104 20 139 4.8 11.3 0.00 0.00 0.00 65 1011.8
20260505181522 20 158 4.8 17.7 0.00 0.00 0.00 64 1011.8
20260505180105 20 278 4.8 14.5 0.00 0.00 0.00 65 1012.1
20260505174528 20 218 3.2 11.3 0.00 0.00 0.00 65 1012.2
20260505173004 21 46 3.2 11.3 0.00 0.00 0.00 64 1012.3
20260505171547 20 340 3.2 12.9 0.00 0.00 0.00 67 1012.4
20260505170016 20 110 4.8 11.3 0.00 0.00 0.00 67 1012.3
20260505164604 19 34 3.2 14.5 0.00 0.00 0.00 70 1012.2
20260505163025 18 68 1.6 11.3 0.00 0.00 0.00 71 1012.3
20260505161608 18 76 1.6 16.1 0.00 0.00 0.00 73 1012.4
20260505153042 18 34 3.2 11.3 0.00 0.00 0.00 74 1012.7
20260505151512 18 67 3.2 14.5 0.00 0.00 0.00 73 1012.6
20260505124609 16 150 1.6 9.7 0.00 0.00 0.00 77 1012.6
20260505123037 16 94 1.6 8.0 0.00 0.00 0.00 79 1012.5
20260505121510 15 58 1.6 6.4 0.00 0.00 0.00 83 1012.5
20260505120051 15 92 0.0 6.4 0.00 0.00 0.00 82 1012.4
20260505114519 14 148 1.6 6.4 0.00 0.00 0.00 84 1012.4
20260505113101 14 105 1.6 8.0 0.00 0.00 0.00 84 1012.2
20260505111515 14 85 0.0 6.4 0.00 0.00 0.00 83 1012.3
20260505101541 13 121 0.0 1.6 0.00 0.00 0.00 85 1011.7
20260505100003 13 70 0.0 1.6 0.00 0.00 0.00 85 1011.5
20260505094544 13 110 0.0 4.8 0.00 0.00 0.00 85 1011.5
20260505093015 14 117 0.0 4.8 0.00 0.00 0.00 81 1011.4
20260505091606 13 92 0.0 3.2 0.00 0.00 0.00 82 1011.2
20260505090032 13 139 0.0 3.2 0.00 0.00 0.00 84 1011.2
20260505084502 13 169 0.0 4.8 0.00 0.00 0.00 85 1011.2
20260505083046 13 86 0.0 4.8 0.00 0.00 0.00 85 1011.2
20260505081516 13 120 1.6 6.4 0.00 0.00 0.00 85 1011.2
20260505080058 13 112 3.2 9.7 0.00 0.00 0.00 86 1011.3
20260505074527 13 187 1.6 6.4 0.00 0.00 0.00 85 1011.2
20260505073138 13 104 3.2 11.3 0.00 0.00 0.00 84 1011.2
20260505071601 14 122 3.2 6.4 0.00 0.00 0.00 84 1011.1